QPF
0.00 0.00 0.00 0.00 0.00 0.00 0.00 0.01 0.03 0.00 0.00 0.00 0.00 0.00 0.00 0.00 0.00 0.00 0.00 0.00 0.00 0.00 0.00 0.00 0.00 0.00 0.00 0.00 0.00 0.00 0.00 0.00 0.01 0.00 0.00 0.00 0.00 0.00 0.00 0.00 0.00 0.00 0.00
0.00 0.00 0.00 0.00 0.00 0.00 0.01 0.04 0.02 0.01 0.00 0.00 0.00 0.00 0.00 0.00 0.00 0.00 0.00 0.00 0.00 0.00 0.00 0.00 0.00 0.00 0.00 0.00 0.00 0.00 0.00 0.00 0.01 0.01 0.01 0.00 0.00 0.00 0.00 0.01 0.00 0.00 0.00
0.00 0.00 0.00 0.00 0.00 0.00 0.01 0.01 0.01 0.00 0.00 0.00 0.00 0.00 0.00 0.00 0.00 0.00 0.00 0.00 0.00 0.00 0.00 0.00 0.00 0.00 0.00 0.00 0.00 0.00 0.00 0.00 0.01 0.01 0.01 0.00 0.00 0.00 0.00 0.01 0.01 0.00 0.00
0.00 0.00 0.00 0.00 0.00 0.00 0.00 0.00 0.00 0.00 0.00 0.00 0.00 0.00 0.00 0.00 0.00 0.00 0.00 0.00 0.00 0.00 0.00 0.00 0.00 0.00 0.00 0.00 0.00 0.00 0.01 0.01 0.01 0.01 0.01 0.00 0.01 0.00 0.00 0.00 0.01 0.01 0.01
0.00 0.00 0.00 0.00 0.00 0.00 0.00 0.00 0.00 0.00 0.00 0.00 0.00 0.00 0.00 0.00 0.00 0.00 0.00 0.00 0.00 0.00 0.00 0.00 0.00 0.00 0.00 0.00 0.00 0.00 0.01 0.02 0.02 0.02 0.02 0.02 0.02 0.01 0.02 0.03 0.06 0.05 0.02
0.00 0.00 0.00 0.00 0.00 0.00 0.00 0.00 0.00 0.00 0.00 0.00 0.00 0.00 0.00 0.00 0.00 0.00 0.00 0.00 0.00 0.00 0.00 0.00 0.00 0.00 0.00 0.00 0.00 0.01 0.01 0.02 0.03 0.03 0.04 0.05 0.08 0.17 0.18 0.10 0.05 0.04 0.02
0.00 0.00 0.00 0.00 0.00 0.00 0.00 0.00 0.00 0.00 0.00 0.00 0.00 0.00 0.00 0.00 0.00 0.00 0.00 0.00 0.00 0.00 0.00 0.00 0.00 0.00 0.00 0.00 0.00 0.00 0.00 0.01 0.02 0.06 0.13 0.14 0.19 0.16 0.10 0.03 0.03 0.05 0.04
0.00 0.00 0.00 0.00 0.00 0.00 0.00 0.00 0.00 0.00 0.00 0.00 0.00 0.00 0.00 0.00 0.00 0.00 0.00 0.00 0.00 0.00 0.00 0.00 0.00 0.00 0.00 0.00 0.00 0.00 0.00 0.00 0.01 0.01 0.01 0.01 0.01 0.01 0.03 0.04 0.02 0.01 0.01
0.00 0.00 0.00 0.00 0.00 0.00 0.00 0.00 0.00 0.00 0.00 0.00 0.00 0.00 0.00 0.00 0.00 0.00 0.00 0.00 0.00 0.00 0.00 0.00 0.00 0.00 0.00 0.01 0.00 0.00 0.00 0.01 0.02 0.00 0.00 0.00 0.00 0.00 0.00 0.00 0.00 0.00 0.00
0.00 0.00 0.00 0.00 0.00 0.00 0.00 0.00 0.00 0.00 0.00 0.00 0.00 0.00 0.00 0.00 0.00 0.00 0.00 0.00 0.00 0.00 0.00 0.00 0.00 0.00 0.00 0.00 0.00 0.00 0.01 0.01 0.00 0.00 0.01 0.01 0.00 0.00 0.01 0.00 0.01 0.03 0.02
0.00 0.00 0.00 0.00 0.00 0.00 0.00 0.00 0.00 0.00 0.00 0.00 0.00 0.00 0.00 0.00 0.00 0.00 0.00 0.00 0.00 0.00 0.00 0.00 0.00 0.00 0.00 0.01 0.05 0.04 0.04 0.02 0.02 0.01 0.00 0.00 0.00 0.00 0.00 0.00 0.01 0.02 0.04
0.00 0.00 0.00 0.00 0.00 0.00 0.00 0.00 0.00 0.00 0.00 0.00 0.00 0.00 0.00 0.00 0.00 0.00 0.00 0.00 0.00 0.00 0.00 0.00 0.00 0.00 0.02 0.11 0.15 0.13 0.07 0.02 0.01 0.01 0.00 0.00 0.00 0.00 0.00 0.02 0.02 0.05 0.12
0.00 0.00 0.00 0.00 0.00 0.00 0.00 0.00 0.00 0.00 0.00 0.00 0.00 0.00 0.00 0.00 0.00 0.00 0.00 0.00 0.00 0.00 0.00 0.02 0.01 0.00 0.07 0.25 0.14 0.11 0.12 0.02 0.01 0.00 0.00 0.00 0.00 0.00 0.03 0.04 0.02 0.08 0.11
0.00 0.00 0.00 0.00 0.00 0.00 0.00 0.00 0.00 0.00 0.00 0.00 0.00 0.00 0.00 0.00 0.00 0.00 0.00 0.00 0.00 0.00 0.00 0.00 0.01 0.03 0.07 0.08 0.10 0.12 0.03 0.01 0.01 0.00 0.00 0.00 0.00 0.00 0.02 0.03 0.05 0.11 0.07
0.00 0.00 0.00 0.00 0.00 0.00 0.00 0.00 0.00 0.00 0.00 0.00 0.00 0.00 0.00 0.00 0.00 0.00 0.00 0.01 0.00 0.00 0.00 0.00 0.01 0.01 0.02 0.09 0.11 0.07 0.01 0.01 0.01 0.00 0.00 0.00 0.00 0.00 0.00 0.03 0.14 0.21 0.17
0.00 0.00 0.00 0.00 0.00 0.00 0.00 0.00 0.00 0.00 0.00 0.00 0.00 0.00 0.00 0.00 0.00 0.00 0.01 0.02 0.01 0.01 0.01 0.03 0.03 0.08 0.06 0.08 0.03 0.00 0.00 0.00 0.00 0.00 0.00 0.00 0.00 0.00 0.00 0.01 0.14 0.17 0.37
0.00 0.00 0.00 0.00 0.00 0.00 0.00 0.00 0.00 0.00 0.00 0.00 0.00 0.00 0.00 0.00 0.00 0.00 0.00 0.02 0.01 0.02 0.09 0.09 0.10 0.15 0.08 0.02 0.00 0.00 0.00 0.00 0.00 0.00 0.00 0.00 0.00 0.00 0.00 0.00 0.01 0.03 0.07
0.00 0.00 0.00 0.00 0.00 0.00 0.00 0.00 0.00 0.00 0.00 0.00 0.00 0.00 0.00 0.00 0.00 0.00 0.00 0.01 0.01 0.08 0.07 0.07 0.11 0.11 0.03 0.00 0.00 0.00 0.00 0.00 0.00 0.00 0.00 0.00 0.00 0.00 0.00 0.00 0.02 0.04 0.06
0.00 0.00 0.00 0.00 0.00 0.00 0.00 0.00 0.00 0.00 0.00 0.00 0.00 0.00 0.00 0.00 0.00 0.00 0.00 0.00 0.02 0.03 0.02 0.01 0.02 0.02 0.00 0.00 0.00 0.00 0.00 0.00 0.00 0.00 0.00 0.00 0.00 0.00 0.00 0.01 0.01 0.04 0.05
0.00 0.00 0.00 0.00 0.00 0.00 0.00 0.00 0.00 0.00 0.00 0.00 0.00 0.00 0.00 0.00 0.00 0.00 0.00 0.00 0.00 0.00 0.00 0.00 0.00 0.00 0.00 0.00 0.00 0.00 0.00 0.00 0.00 0.00 0.00 0.00 0.00 0.00 0.00 0.00 0.01 0.02 0.05
0.00 0.00 0.00 0.00 0.00 0.00 0.00 0.00 0.00 0.00 0.00 0.00 0.00 0.00 0.00 0.00 0.00 0.00 0.00 0.00 0.00 0.00 0.00 0.00 0.00 0.00 0.00 0.00 0.00 0.00 0.00 0.00 0.00 0.00 0.00 0.00 0.00 0.00 0.00 0.00 0.00 0.00 0.02
0.00 0.00 0.00 0.00 0.00 0.00 0.00 0.00 0.00 0.00 0.00 0.00 0.00 0.00 0.00 0.00 0.00 0.00 0.00 0.00 0.00 0.00 0.00 0.00 0.00 0.00 0.00 0.00 0.00 0.00 0.00 0.00 0.00 0.00 0.00 0.00 0.00 0.00 0.00 0.00 0.00 0.00 0.00
0.00 0.00 0.00 0.00 0.00 0.00 0.00 0.00 0.00 0.00 0.00 0.00 0.00 0.00 0.00 0.00 0.00 0.00 0.00 0.00 0.00 0.00 0.00 0.00 0.00 0.00 0.00 0.00 0.00 0.00 0.00 0.00 0.00 0.00 0.00 0.00 0.00 0.00 0.00 0.00 0.00 0.00 0.00
0.00 0.00 0.00 0.00 0.00 0.00 0.00 0.00 0.00 0.00 0.00 0.00 0.00 0.00 0.00 0.00 0.00 0.00 0.00 0.00 0.00 0.00 0.00 0.00 0.00 0.00 0.00 0.00 0.00 0.00 0.00 0.00 0.00 0.00 0.00 0.00 0.00 0.00 0.00 0.00 0.00 0.00 0.00
0.00 0.00 0.00 0.00 0.00 0.00 0.00 0.00 0.00 0.00 0.00 0.00 0.00 0.00 0.00 0.00 0.00 0.00 0.00 0.00 0.00 0.00 0.00 0.00 0.00 0.00 0.00 0.00 0.00 0.00 0.00 0.00 0.00 0.00 0.00 0.00 0.00 0.00 0.00 0.00 0.00 0.00 0.00
0.00 0.00 0.00 0.00 0.00 0.00 0.00 0.00 0.00 0.00 0.00 0.00 0.00 0.00 0.00 0.00 0.00 0.00 0.00 0.00 0.00 0.00 0.00 0.00 0.00 0.00 0.00 0.00 0.00 0.00 0.00 0.00 0.00 0.00 0.00 0.00 0.00 0.00 0.00 0.00 0.00 0.00 0.00
MSLP
1013.56 1014.04 1014.50 1014.91 1015.32 1015.62 1015.91 1016.30 1016.65 1016.77 1016.98 1017.07 1016.91 1016.86 1016.69 1016.56 1016.57 1016.42 1016.27 1016.11 1015.96 1015.76 1015.55 1015.38 1015.25 1015.16 1014.79 1014.56 1014.24 1013.99 1013.63 1013.37 1012.28 1011.71 1011.67 1011.77 1011.30 1010.91 1010.38 1009.79 1009.37 1008.80 1008.15
1013.41 1013.92 1014.45 1014.94 1015.39 1015.83 1016.10 1016.50 1016.81 1016.81 1016.86 1016.87 1016.77 1016.57 1016.46 1016.50 1016.61 1016.45 1016.16 1015.95 1015.66 1015.53 1015.19 1015.22 1014.97 1014.74 1014.75 1014.47 1014.06 1013.79 1013.36 1013.15 1012.40 1011.37 1011.61 1011.48 1011.34 1010.68 1010.01 1009.61 1008.92 1008.14 1007.55
1013.60 1013.99 1014.45 1015.19 1015.67 1015.99 1016.26 1016.44 1016.71 1016.77 1016.73 1016.68 1016.53 1016.52 1016.46 1016.50 1016.39 1016.21 1016.02 1015.74 1015.61 1015.43 1015.30 1015.05 1014.79 1014.66 1014.44 1014.19 1014.09 1013.50 1012.89 1012.43 1012.12 1011.59 1010.98 1011.25 1010.87 1010.10 1009.02 1008.80 1008.50 1007.76 1007.00
1013.61 1014.18 1014.85 1015.38 1015.76 1016.10 1016.32 1016.51 1016.69 1016.77 1016.78 1016.77 1016.72 1016.68 1016.61 1016.55 1016.29 1016.02 1015.93 1015.92 1015.73 1015.49 1015.20 1014.85 1014.72 1014.57 1014.28 1013.98 1013.59 1013.22 1012.93 1012.71 1012.39 1011.84 1010.96 1010.26 1009.88 1009.01 1008.79 1008.27 1007.56 1007.00 1005.97
1014.07 1014.73 1015.28 1015.73 1016.05 1016.32 1016.60 1016.74 1016.89 1017.04 1017.08 1017.10 1016.99 1016.75 1016.57 1016.31 1016.12 1016.47 1016.16 1015.89 1015.71 1015.35 1014.94 1014.65 1014.46 1014.45 1014.31 1014.02 1013.80 1013.44 1013.26 1012.74 1012.12 1011.41 1010.67 1010.20 1009.53 1008.65 1007.68 1007.39 1007.11 1006.71 1006.08
1014.64 1015.27 1015.76 1016.15 1016.51 1016.77 1017.08 1017.26 1017.24 1017.21 1017.19 1017.07 1016.87 1016.73 1016.56 1016.47 1017.18 1017.09 1016.82 1016.03 1015.51 1014.94 1014.56 1014.46 1014.20 1013.81 1013.36 1013.57 1013.39 1013.27 1012.93 1012.22 1011.58 1011.26 1010.57 1009.81 1009.14 1008.70 1008.28 1007.48 1007.18 1006.40 1005.46
1015.43 1015.99 1016.32 1016.67 1016.99 1017.24 1017.38 1017.40 1017.34 1017.28 1017.19 1017.04 1016.92 1016.86 1016.73 1017.13 1017.58 1017.27 1016.71 1015.81 1015.50 1014.93 1014.52 1014.14 1013.70 1013.31 1013.25 1013.05 1012.91 1012.47 1011.79 1011.42 1011.29 1010.88 1010.11 1009.49 1008.81 1008.31 1007.86 1007.22 1006.52 1005.97 1005.28
1015.92 1016.38 1016.78 1016.99 1017.09 1017.31 1017.43 1017.44 1017.40 1017.26 1017.21 1017.09 1017.14 1017.27 1017.19 1017.33 1017.68 1017.28 1016.68 1015.92 1015.48 1015.07 1014.58 1014.25 1013.93 1013.75 1013.48 1013.23 1012.50 1011.79 1011.26 1010.93 1010.49 1010.25 1009.77 1008.96 1008.30 1007.65 1007.32 1006.82 1006.19 1005.44 1004.44
1016.42 1016.88 1017.13 1017.30 1017.34 1017.52 1017.63 1017.60 1017.57 1017.38 1017.33 1017.32 1017.40 1017.47 1017.44 1017.28 1017.61 1017.26 1016.60 1015.79 1015.49 1015.11 1014.66 1014.31 1014.15 1013.63 1013.15 1012.95 1012.44 1011.83 1011.11 1010.41 1009.79 1009.38 1009.15 1008.63 1007.95 1007.35 1006.97 1006.71 1005.61 1004.59 1003.24
1017.04 1017.42 1017.51 1017.60 1017.62 1017.58 1017.73 1017.80 1017.88 1017.64 1017.57 1017.41 1017.43 1017.59 1017.62 1017.38 1017.39 1017.24 1017.03 1016.40 1015.85 1015.32 1014.65 1014.09 1013.92 1013.81 1013.51 1012.63 1012.11 1011.66 1011.09 1010.29 1009.51 1008.74 1008.21 1007.52 1007.05 1006.51 1005.88 1005.65 1004.83 1004.22 1003.05
1017.59 1017.79 1017.69 1017.72 1017.79 1017.96 1017.98 1018.00 1017.89 1017.78 1017.69 1017.58 1017.50 1017.55 1017.58 1017.81 1017.66 1017.59 1017.54 1017.06 1016.53 1015.95 1015.17 1014.65 1014.31 1014.01 1013.67 1013.07 1012.31 1012.06 1011.34 1010.68 1009.55 1008.89 1007.92 1006.92 1006.25 1005.72 1005.27 1005.24 1004.73 1004.08 1002.56
1017.51 1017.61 1017.83 1018.13 1018.16 1018.23 1018.25 1018.30 1018.32 1018.27 1018.16 1017.96 1017.79 1017.49 1017.41 1017.73 1017.77 1017.70 1017.71 1017.49 1017.00 1016.19 1015.42 1014.92 1014.53 1014.31 1014.00 1013.49 1012.97 1012.41 1011.48 1010.51 1009.74 1008.86 1008.08 1007.17 1006.66 1006.27 1005.88 1004.99 1003.73 1002.82 1001.53
1017.49 1017.72 1018.07 1018.51 1018.75 1018.86 1018.96 1018.87 1018.94 1018.76 1018.64 1018.37 1018.17 1018.02 1017.84 1017.87 1017.72 1017.95 1017.82 1017.45 1016.86 1016.23 1015.60 1015.56 1015.20 1014.79 1014.21 1013.64 1013.33 1012.66 1011.53 1010.96 1010.17 1009.42 1008.81 1008.18 1007.40 1006.76 1006.12 1004.55 1002.86 1001.60 1000.13
1017.94 1018.16 1018.85 1018.99 1019.23 1019.40 1019.20 1019.18 1019.23 1019.48 1019.42 1019.21 1019.04 1018.84 1018.53 1018.13 1018.08 1018.42 1017.99 1017.61 1017.10 1016.38 1015.89 1015.65 1015.63 1015.31 1014.64 1014.42 1013.63 1012.97 1012.22 1011.41 1010.67 1009.96 1009.29 1009.04 1007.51 1006.58 1005.67 1004.75 1003.00 1000.83 999.04
1018.02 1018.53 1018.88 1019.07 1019.23 1019.32 1019.76 1020.05 1019.96 1020.70 1020.74 1020.46 1020.16 1019.81 1019.47 1019.07 1019.21 1019.31 1018.80 1018.19 1017.67 1017.17 1016.58 1016.05 1015.80 1015.36 1014.91 1014.50 1013.88 1013.16 1012.26 1011.28 1010.50 1010.13 1009.37 1008.68 1007.50 1006.74 1005.63 1004.46 1002.96 1000.94 999.21
1018.25 1018.69 1019.01 1019.06 1019.23 1019.53 1019.76 1020.06 1020.96 1021.03 1021.19 1021.19 1021.02 1020.67 1020.05 1020.25 1019.98 1019.35 1018.81 1018.31 1017.82 1017.38 1016.92 1016.67 1016.67 1016.34 1015.66 1015.16 1014.24 1013.35 1012.40 1011.50 1011.01 1010.38 1009.60 1008.83 1007.91 1007.11 1005.94 1004.31 1003.13 1001.45 999.53
1018.58 1018.79 1019.16 1019.24 1019.29 1019.63 1019.87 1020.14 1020.39 1020.73 1020.86 1021.01 1020.86 1020.69 1020.67 1020.36 1020.12 1019.75 1019.04 1018.54 1018.25 1017.74 1017.48 1017.11 1017.07 1016.68 1016.22 1015.46 1014.62 1013.84 1012.67 1012.08 1011.55 1010.66 1009.88 1009.00 1008.21 1007.24 1006.22 1004.78 1003.39 1001.82 999.76
1018.90 1019.39 1019.07 1019.05 1019.36 1019.86 1019.99 1020.18 1020.12 1020.16 1020.03 1020.28 1020.53 1020.80 1020.59 1020.35 1020.15 1019.85 1019.23 1018.47 1018.26 1017.92 1017.81 1017.59 1017.38 1016.94 1016.38 1015.83 1015.02 1014.18 1013.32 1012.42 1011.75 1010.99 1010.14 1009.36 1008.58 1007.68 1006.39 1005.10 1003.95 1002.54 1000.82
1018.82 1019.09 1019.07 1019.17 1019.51 1019.99 1019.94 1019.96 1019.99 1020.04 1019.95 1020.11 1020.20 1020.11 1020.14 1020.19 1020.02 1019.84 1019.46 1019.00 1018.56 1018.08 1017.78 1017.73 1017.70 1017.28 1016.49 1016.13 1015.54 1014.74 1013.95 1013.07 1012.38 1011.48 1010.58 1009.79 1008.83 1007.84 1006.52 1005.47 1004.19 1003.06 1001.65
1018.85 1019.14 1018.92 1019.11 1019.50 1019.58 1019.74 1019.78 1019.84 1019.83 1019.92 1020.17 1020.24 1020.26 1020.22 1019.72 1019.31 1019.24 1019.17 1019.03 1018.81 1018.45 1018.18 1018.07 1017.58 1017.42 1017.09 1016.66 1015.94 1015.10 1014.21 1013.40 1012.55 1011.84 1011.07 1010.16 1009.05 1007.95 1006.68 1005.52 1004.49 1003.57 1002.30
1018.38 1018.32 1018.61 1018.71 1018.94 1019.35 1019.61 1019.59 1019.70 1019.92 1020.00 1020.21 1020.31 1020.88 1021.28 1020.27 1019.82 1019.68 1019.52 1019.24 1019.50 1018.98 1018.60 1018.37 1018.31 1018.00 1017.38 1016.88 1016.36 1015.66 1014.86 1014.07 1013.43 1012.70 1011.84 1010.60 1009.29 1007.90 1006.81 1005.71 1004.65 1003.58 1002.84
1017.96 1017.94 1018.29 1018.20 1018.58 1019.25 1019.71 1019.56 1019.52 1019.65 1019.95 1020.27 1020.49 1020.92 1021.31 1020.58 1020.31 1020.03 1019.89 1019.67 1019.54 1019.31 1019.11 1018.92 1018.60 1018.17 1017.72 1017.40 1016.94 1016.30 1015.61 1015.09 1014.57 1013.95 1012.75 1011.20 1009.73 1008.11 1007.05 1005.97 1004.83 1003.75 1002.93
1017.46 1017.74 1018.06 1018.08 1018.54 1019.47 1019.86 1019.60 1019.55 1019.74 1020.08 1020.50 1020.70 1021.17 1020.94 1020.85 1020.67 1020.42 1020.15 1020.06 1019.92 1019.65 1019.49 1019.16 1018.90 1018.63 1018.40 1018.01 1017.55 1017.09 1016.44 1016.25 1015.85 1014.91 1013.51 1011.94 1009.97 1008.60 1007.33 1006.22 1005.14 1004.17 1003.34
1017.48 1017.68 1017.91 1018.04 1018.66 1019.18 1019.42 1019.58 1019.74 1019.98 1020.24 1020.69 1021.23 1021.28 1021.82 1021.48 1020.94 1020.81 1020.57 1020.35 1020.15 1019.95 1019.76 1019.44 1019.33 1019.09 1018.70 1018.33 1017.85 1017.31 1016.72 1016.99 1016.27 1014.81 1014.07 1011.94 1010.16 1009.00 1007.84 1006.61 1005.60 1004.76 1003.97
1017.74 1017.79 1017.98 1018.21 1018.83 1019.27 1019.47 1019.53 1019.67 1019.97 1019.98 1020.47 1020.90 1021.35 1021.46 1021.67 1021.28 1020.93 1020.83 1020.59 1020.30 1020.04 1019.90 1019.71 1019.52 1019.14 1018.76 1018.38 1018.09 1017.66 1017.27 1016.79 1016.09 1015.26 1013.48 1011.53 1010.45 1009.39 1008.22 1007.10 1006.32 1005.39 1004.73
1017.89 1017.89 1017.87 1018.42 1018.87 1019.26 1019.37 1019.54 1019.62 1019.95 1020.17 1020.74 1020.71 1021.43 1021.44 1021.42 1021.48 1021.14 1020.94 1020.75 1020.43 1020.23 1020.13 1019.86 1019.64 1019.28 1018.74 1018.29 1018.29 1018.02 1017.33 1016.64 1015.77 1014.78 1013.55 1011.48 1010.69 1009.80 1008.94 1007.84 1007.15 1006.29 1005.56
Thickness
5812 5805 5798 5792 5786 5780 5773 5766 5759 5755 5748 5743 5740 5736 5732 5729 5725 5720 5715 5712 5708 5704 5699 5695 5690 5687 5684 5680 5677 5673 5670 5668 5669 5674 5671 5666 5669 5669 5672 5675 5677 5682 5687
5810 5803 5795 5788 5781 5773 5766 5758 5752 5747 5742 5737 5734 5730 5726 5720 5714 5711 5708 5704 5700 5694 5692 5685 5681 5678 5670 5667 5664 5660 5660 5657 5658 5661 5656 5653 5650 5655 5659 5661 5666 5671 5677
5805 5797 5790 5780 5772 5765 5760 5754 5746 5740 5736 5730 5726 5722 5716 5711 5707 5703 5699 5695 5690 5685 5680 5675 5671 5665 5659 5656 5651 5650 5651 5651 5650 5648 5647 5640 5639 5644 5652 5652 5652 5658 5665
5799 5790 5780 5772 5766 5759 5754 5747 5740 5733 5727 5721 5716 5710 5706 5701 5698 5695 5689 5683 5678 5672 5667 5664 5658 5652 5648 5645 5643 5640 5638 5632 5629 5628 5632 5634 5631 5636 5636 5638 5642 5646 5655
5789 5780 5771 5765 5759 5752 5743 5735 5728 5722 5715 5708 5703 5700 5697 5693 5690 5680 5675 5669 5663 5659 5657 5653 5647 5641 5635 5631 5626 5624 5617 5615 5614 5615 5616 5617 5619 5622 5629 5630 5627 5629 5636
5777 5768 5761 5754 5746 5738 5730 5721 5716 5710 5704 5698 5693 5689 5685 5680 5665 5660 5655 5655 5652 5649 5645 5641 5636 5634 5631 5623 5618 5611 5606 5605 5603 5601 5604 5607 5609 5608 5607 5610 5610 5615 5621
5764 5755 5748 5741 5732 5725 5718 5712 5705 5700 5695 5690 5683 5677 5671 5662 5650 5645 5642 5644 5639 5637 5635 5632 5630 5628 5619 5614 5609 5605 5605 5601 5595 5592 5593 5595 5597 5599 5601 5602 5605 5609 5611
5753 5746 5738 5732 5726 5719 5712 5704 5698 5692 5684 5678 5670 5662 5655 5648 5636 5633 5631 5633 5629 5624 5621 5617 5613 5607 5603 5601 5603 5601 5599 5595 5593 5587 5585 5589 5593 5597 5595 5597 5598 5601 5608
5742 5735 5729 5722 5715 5707 5698 5692 5686 5680 5673 5665 5657 5649 5641 5637 5626 5623 5622 5622 5615 5609 5605 5601 5597 5598 5598 5594 5593 5592 5592 5591 5587 5585 5584 5586 5588 5590 5588 5587 5591 5595 5604
5729 5723 5717 5711 5704 5698 5689 5682 5674 5668 5660 5653 5645 5637 5630 5625 5616 5609 5605 5603 5600 5596 5594 5594 5589 5586 5584 5585 5585 5584 5583 5583 5585 5587 5589 5592 5591 5590 5589 5584 5584 5584 5590
5718 5712 5708 5701 5694 5685 5679 5672 5665 5657 5650 5643 5636 5629 5621 5611 5604 5595 5586 5584 5581 5578 5579 5578 5576 5573 5570 5571 5573 5572 5573 5573 5579 5581 5586 5590 5589 5588 5584 5576 5573 5571 5579
5712 5706 5698 5689 5683 5676 5668 5660 5653 5645 5637 5630 5622 5617 5612 5601 5591 5582 5572 5565 5561 5562 5562 5562 5562 5559 5557 5558 5560 5560 5564 5568 5573 5577 5579 5582 5578 5573 5569 5569 5573 5574 5581
5705 5696 5688 5678 5669 5662 5654 5647 5639 5632 5626 5620 5614 5606 5597 5589 5581 5568 5558 5549 5544 5544 5545 5542 5542 5544 5547 5549 5549 5551 5557 5560 5564 5567 5567 5566 5565 5562 5559 5564 5573 5580 5590
5691 5684 5672 5664 5656 5648 5644 5637 5629 5620 5614 5608 5600 5591 5584 5579 5570 5554 5543 5531 5524 5523 5525 5526 5526 5530 5535 5536 5539 5542 5546 5552 5556 5557 5557 5552 5560 5560 5558 5559 5569 5584 5598
5681 5673 5663 5656 5648 5642 5631 5621 5615 5600 5593 5590 5584 5578 5571 5565 5551 5536 5526 5514 5503 5500 5506 5513 5517 5523 5527 5529 5532 5537 5542 5549 5554 5552 5554 5554 5559 5554 5557 5560 5567 5582 5595
5670 5663 5654 5647 5640 5631 5623 5614 5596 5589 5582 5575 5568 5563 5562 5549 5538 5530 5519 5509 5501 5500 5505 5507 5508 5511 5516 5519 5528 5532 5537 5544 5545 5547 5551 5553 5554 5552 5554 5560 5564 5577 5592
5659 5652 5644 5637 5630 5620 5612 5603 5597 5588 5580 5571 5565 5559 5551 5542 5534 5527 5522 5516 5509 5508 5505 5506 5505 5504 5508 5515 5522 5526 5534 5535 5538 5543 5547 5550 5550 5551 5552 5556 5563 5573 5589
5645 5636 5635 5628 5619 5607 5601 5595 5592 5587 5583 5574 5563 5554 5549 5541 5532 5526 5523 5523 5516 5513 5508 5505 5502 5502 5506 5509 5516 5521 5526 5532 5535 5539 5543 5545 5546 5549 5552 5554 5558 5565 5577
5635 5628 5624 5616 5607 5597 5594 5590 5585 5581 5576 5568 5561 5557 5550 5541 5532 5526 5522 5520 5516 5514 5512 5507 5502 5503 5508 5509 5511 5515 5520 5527 5530 5534 5538 5540 5543 5547 5552 5554 5559 5561 5569
5625 5618 5615 5608 5599 5594 5589 5585 5581 5577 5571 5562 5556 5552 5546 5543 5539 5532 5525 5520 5515 5513 5510 5506 5506 5505 5505 5505 5508 5513 5519 5524 5528 5530 5532 5536 5541 5546 5554 5556 5560 5560 5568
5618 5615 5608 5603 5596 5589 5584 5581 5576 5570 5564 5557 5551 5541 5531 5536 5534 5528 5523 5520 5511 5511 5509 5506 5503 5502 5505 5506 5507 5511 5515 5519 5521 5523 5525 5532 5538 5545 5551 5557 5561 5566 5566
5611 5607 5600 5598 5592 5582 5576 5574 5571 5566 5558 5551 5545 5538 5529 5532 5529 5526 5522 5519 5515 5511 5508 5505 5504 5504 5504 5503 5504 5507 5509 5510 5511 5511 5517 5526 5534 5544 5548 5553 5559 5565 5569
5606 5599 5593 5591 5584 5572 5567 5566 5563 5558 5551 5543 5537 5532 5529 5526 5524 5522 5520 5516 5513 5510 5508 5507 5505 5503 5501 5500 5500 5500 5502 5501 5501 5504 5511 5520 5532 5539 5547 5552 5557 5562 5566
5595 5589 5584 5582 5573 5568 5563 5558 5555 5547 5544 5534 5527 5524 5518 5516 5518 5516 5514 5512 5510 5508 5506 5504 5501 5499 5499 5498 5498 5499 5500 5496 5499 5505 5507 5520 5531 5535 5541 5548 5553 5556 5559
5582 5579 5575 5571 5564 5559 5554 5551 5547 5542 5538 5530 5525 5518 5514 5510 5511 5511 5509 5507 5506 5505 5503 5501 5498 5497 5497 5496 5495 5496 5497 5498 5499 5501 5509 5520 5525 5530 5536 5542 5545 5550 5551
5571 5570 5568 5562 5556 5551 5547 5543 5541 5535 5529 5521 5518 5511 5508 5505 5503 5504 5503 5502 5501 5500 5497 5496 5495 5494 5495 5494 5492 5492 5494 5497 5499 5503 5506 5516 5520 5524 5527 5532 5534 5539 5542